RH
46 44 42 40 37 36 38 39 40 39 39 44 50 55 58 57 52 50 52 57 67 72 74 80 85 84 82 83 86 88 88 89 87 87 80 74 71 64 57 51 40 30 24 19 16 16 17 16 14 12 12 14 17 18 18 17 18 18 18 18 18 17 15 14 13 12 11 9 10 11 11 10 9 10 10 10 10 10 10 11 11 12 12 12 12 12 15 19
45 43 40 38 36 35 38 38 38 38 37 42 47 52 57 56 54 51 52 58 67 72 75 81 87 85 81 82 84 82 87 90 85 82 71 65 65 58 52 45 33 25 20 17 15 16 17 15 12 11 13 16 17 18 18 18 18 19 19 18 18 17 15 14 12 12 10 9 10 11 11 10 9 10 10 9 10 10 9 10 11 11 12 12 12 12 14 17
44 39 38 37 36 35 36 36 37 36 36 41 46 50 54 56 54 52 53 57 63 68 74 83 88 86 81 80 82 82 86 88 83 75 62 59 59 54 48 39 30 24 20 17 17 17 17 14 12 12 14 16 17 17 17 18 18 19 20 18 18 17 15 14 13 12 11 10 10 10 11 10 10 10 10 9 9 10 9 9 10 10 11 11 12 13 14 15
42 36 35 35 35 33 33 34 34 34 34 39 45 49 52 54 53 52 52 54 62 70 76 84 86 83 81 78 79 83 83 83 79 69 59 56 54 52 47 36 29 25 20 19 18 18 16 14 12 14 15 16 18 17 17 18 18 19 19 18 17 16 14 13 13 12 11 10 10 10 10 9 9 10 10 10 9 9 9 9 9 9 9 10 11 12 13 14
39 33 34 34 33 32 33 33 33 34 35 39 44 48 50 50 51 50 49 53 65 74 76 79 78 76 76 73 78 81 78 79 75 65 60 54 51 50 43 34 28 24 21 19 18 17 15 13 13 15 16 16 18 17 17 18 18 19 19 18 18 16 14 14 13 12 11 10 10 9 9 9 9 9 10 10 9 9 9 9 9 9 9 9 10 11 13 14
34 31 34 33 31 32 34 34 34 36 36 38 42 46 47 46 47 47 47 52 62 69 71 71 69 67 64 64 74 77 72 75 71 63 61 53 48 44 38 31 26 23 21 18 17 16 14 13 14 15 15 16 16 16 17 18 18 18 19 18 18 16 15 14 14 12 11 11 10 9 9 9 9 9 9 10 9 9 9 9 9 9 9 9 9 10 12 13
32 31 33 32 31 33 35 35 35 35 35 37 40 44 45 43 42 44 45 50 57 62 64 63 58 57 55 54 67 72 69 71 68 63 60 52 44 38 34 31 24 21 19 16 16 14 13 13 14 15 14 15 16 16 17 18 18 18 18 18 17 16 15 15 14 13 12 11 10 10 9 10 8 8 9 9 9 9 9 9 9 9 9 9 10 10 10 11
33 32 31 32 35 35 35 35 35 34 35 36 38 43 44 40 39 41 43 47 54 57 56 54 50 51 53 51 58 65 66 68 64 61 59 49 40 35 35 30 22 20 16 15 15 13 13 13 14 14 14 14 15 17 18 18 18 18 18 18 18 17 16 15 14 14 13 12 11 10 10 10 9 9 9 8 8 8 9 9 9 9 9 10 10 10 10 11
33 32 32 35 38 37 36 36 35 35 36 36 37 40 40 38 38 40 41 44 47 48 46 48 50 51 53 51 54 58 62 64 58 56 56 47 38 37 35 27 20 18 16 15 15 14 13 13 14 14 13 14 15 17 17 17 17 17 18 19 18 17 16 15 14 13 13 13 11 10 10 10 10 9 9 8 8 7 8 9 9 9 9 10 10 10 10 10
34 32 33 37 39 38 36 37 36 36 37 36 36 36 35 36 37 40 40 37 37 39 43 48 48 48 49 50 52 54 57 58 52 51 52 44 39 38 33 23 19 18 16 16 16 15 13 13 15 14 14 15 15 17 17 17 16 17 19 18 18 17 17 16 14 13 13 13 12 11 11 11 10 9 8 8 7 7 7 8 8 8 9 9 9 10 10 10
34 33 33 37 38 37 36 37 37 37 37 36 37 34 30 31 34 35 33 28 30 38 45 47 43 41 45 48 50 52 52 49 45 46 47 42 39 36 29 22 20 18 16 16 15 14 13 14 15 15 14 15 15 16 16 17 16 17 18 17 17 17 17 16 14 14 12 12 12 11 11 11 10 9 8 8 7 7 7 7 8 8 8 9 9 9 9 9
36 34 34 36 36 37 37 39 38 38 37 37 37 31 26 26 27 28 28 27 31 41 48 48 40 37 42 46 49 51 48 43 40 43 44 41 38 33 27 22 21 19 17 16 15 15 15 15 16 14 14 14 14 15 15 17 17 17 17 16 16 16 16 16 15 14 13 12 11 10 10 10 10 9 9 8 7 7 7 7 7 8 8 8 8 8 9 9
37 35 36 37 37 38 38 39 38 38 38 38 36 29 25 25 23 26 30 30 36 45 50 47 37 34 40 45 49 49 46 43 40 42 43 40 37 31 26 23 21 20 18 17 16 16 16 16 15 14 14 14 15 14 15 16 16 16 16 16 16 15 14 15 15 14 13 13 12 10 9 9 8 8 8 8 8 7 8 8 7 8 8 8 8 8 9 9
38 37 37 39 39 38 39 39 39 38 38 38 35 28 24 23 23 28 33 35 41 47 47 43 35 34 40 44 48 47 44 43 41 42 42 39 35 30 26 23 22 21 19 18 17 17 16 16 15 14 14 14 15 14 14 15 15 14 15 15 15 14 13 14 15 14 11 12 11 9 9 8 7 7 8 8 7 7 8 8 7 8 8 8 8 8 9 9
40 39 40 40 39 38 39 39 38 38 39 37 33 28 25 24 26 33 36 36 42 45 45 43 36 36 42 43 46 47 44 42 42 41 39 36 33 29 26 24 22 21 19 18 18 17 17 16 15 15 15 15 14 14 14 14 14 13 14 15 15 14 13 13 15 14 12 11 10 9 9 7 6 8 8 8 8 8 7 8 7 8 8 8 8 8 8 9
41 40 41 41 39 38 37 38 38 38 39 35 30 27 26 26 30 36 35 36 42 45 46 44 38 39 43 42 45 46 43 41 41 39 36 33 31 28 26 24 23 22 20 19 18 17 16 15 15 15 15 15 14 14 14 15 14 13 14 15 15 13 12 12 14 15 13 12 10 9 9 7 7 9 9 8 8 8 8 8 7 8 8 8 8 8 8 8
41 41 42 41 39 37 38 39 38 38 37 32 27 26 26 26 32 36 36 39 45 48 49 45 41 42 41 41 45 47 42 38 37 35 31 30 28 26 25 24 24 23 21 20 18 17 16 15 15 15 15 14 13 13 14 15 15 14 13 14 15 13 11 11 12 14 13 11 10 9 9 7 8 9 9 9 8 8 8 8 8 7 7 8 8 8 8 8
40 42 44 41 39 38 39 40 39 39 34 28 26 26 26 30 35 39 40 44 50 53 54 47 42 40 38 39 44 45 40 35 32 31 28 27 26 24 24 24 23 23 21 19 18 18 17 17 16 15 15 14 13 12 13 14 13 13 13 12 13 12 11 10 10 13 13 11 10 10 9 8 8 8 8 8 8 8 8 8 8 8 7 8 8 8 8 8
40 42 43 41 40 40 41 41 42 39 32 28 28 27 29 33 38 42 43 45 50 53 51 44 38 36 35 37 42 42 39 33 30 28 26 25 24 24 25 24 23 22 20 20 20 19 19 18 17 16 15 14 13 11 11 12 11 12 12 11 11 11 11 10 11 13 13 12 10 10 9 8 8 8 8 8 8 8 8 8 8 8 8 8 8 8 8 8
41 43 42 42 41 41 42 41 41 37 31 29 29 29 33 35 38 44 46 48 49 47 43 38 35 35 36 38 41 41 38 33 29 27 25 24 23 24 25 24 24 22 21 20 20 20 19 18 17 15 14 13 12 12 12 12 12 12 12 12 12 11 10 11 12 13 13 11 10 11 10 9 9 8 8 9 9 9 9 9 8 8 8 8 8 8 8 8
42 43 42 42 43 43 41 39 40 36 30 28 26 27 30 30 31 36 41 47 48 45 42 38 36 36 37 39 40 39 36 33 29 28 26 24 23 23 24 23 22 22 22 21 20 19 18 17 16 14 14 13 13 13 13 12 12 11 11 11 12 12 11 12 13 13 13 12 10 12 11 10 9 9 8 9 9 9 8 8 8 8 7 7 7 8 8 8
41 41 40 42 43 43 40 38 38 33 29 29 26 24 24 25 29 34 41 46 48 47 44 39 36 36 38 40 40 37 35 33 31 29 27 24 23 22 22 22 20 21 22 21 19 19 18 17 15 16 16 15 15 14 13 13 13 12 12 12 12 12 11 12 13 13 13 11 10 12 11 9 9 8 8 9 9 9 9 8 8 8 7 7 7 7 7 7
42 40 38 40 40 40 40 38 36 33 32 32 26 23 23 25 34 43 49 50 51 50 45 39 36 37 39 40 39 37 34 33 31 30 27 23 23 21 21 20 19 20 21 19 18 19 18 17 17 18 16 15 15 14 13 13 13 13 13 12 12 14 12 11 12 13 13 12 11 12 11 9 8 8 8 9 9 9 9 8 8 8 7 7 7 7 7 7
43 40 38 38 38 40 41 39 38 38 36 31 24 23 25 29 39 50 53 53 53 50 44 40 37 37 40 40 38 36 34 33 32 31 27 24 23 21 21 20 19 20 19 18 17 17 18 19 20 18 15 15 15 15 13 12 13 15 15 13 13 14 13 12 13 13 12 12 12 11 11 9 8 8 8 8 9 9 9 8 8 8 7 7 6 6 6 6
42 42 40 38 39 41 41 42 44 42 36 30 25 24 27 34 44 52 53 52 52 50 45 42 39 39 40 39 37 35 33 33 33 32 29 25 23 22 22 21 19 19 19 18 17 17 19 21 21 17 16 16 15 15 15 13 13 15 15 14 12 12 13 14 14 13 12 12 13 12 10 9 9 8 7 8 8 8 8 8 9 10 9 9 7 7 6 6
42 41 40 38 39 40 43 47 46 42 38 31 25 27 31 38 46 52 51 52 51 49 46 43 41 40 39 38 37 34 33 34 34 33 31 27 24 22 23 22 21 20 20 19 18 20 21 22 21 18 17 18 16 15 17 16 13 13 15 15 13 12 14 15 14 14 13 13 15 14 12 10 10 8 8 9 9 8 8 9 10 11 11 11 10 9 8 7
43 42 41 39 38 38 42 46 46 44 39 31 27 31 36 39 45 50 50 52 52 49 48 45 41 40 39 38 35 33 34 35 34 34 32 29 25 23 23 24 22 22 22 20 20 22 22 22 21 19 19 19 16 16 16 15 12 14 19 18 14 14 16 16 15 14 15 15 16 16 14 13 11 9 9 10 9 8 8 9 10 11 12 13 13 11 9 8
45 43 42 40 39 38 38 40 43 42 36 32 32 35 37 38 44 49 51 54 54 50 48 46 43 42 41 38 35 33 34 33 33 35 33 30 27 24 24 24 23 24 24 20 19 22 22 22 22 20 19 17 17 19 19 16 14 18 22 19 16 17 18 18 16 15 17 16 15 16 16 13 11 10 9 10 9 8 9 10 10 10 11 12 14 13 11 10
48 46 44 43 42 40 39 39 40 41 39 38 38 37 37 40 46 50 54 57 54 49 47 46 46 46 42 38 36 35 35 33 33 34 32 31 29 26 25 26 25 25 26 23 22 24 25 23 21 20 17 17 20 23 23 19 16 20 22 20 20 21 20 20 18 16 17 16 15 17 16 13 10 11 10 8 8 7 9 10 10 10 11 12 13 14 13 12
51 49 46 45 44 41 41 43 42 43 44 43 42 40 38 42 47 53 60 60 54 51 49 47 47 47 42 38 38 37 36 35 34 33 32 31 30 28 27 27 27 27 29 28 27 28 28 24 23 23 21 21 23 24 26 24 21 21 21 19 20 21 20 19 18 17 16 16 16 17 17 14 10 10 9 8 8 8 9 10 10 10 11 12 13 13 13 12
53 51 49 45 44 42 42 45 45 46 46 44 45 43 40 45 50 55 60 55 53 54 50 47 48 46 42 39 39 38 38 37 35 32 31 31 31 31 30 29 29 30 30 30 30 30 29 26 25 26 25 24 23 21 23 24 23 22 19 17 19 20 20 19 18 18 17 16 15 16 18 17 12 9 9 8 8 8 9 9 9 10 11 12 12 12 12 12
55 52 52 48 45 43 41 44 46 48 47 46 47 41 39 46 49 50 51 50 55 57 50 47 47 44 41 41 42 41 40 39 36 33 32 32 32 31 31 29 28 31 33 31 32 32 30 29 28 28 26 25 23 21 22 23 22 21 19 18 19 20 21 19 19 19 18 17 16 17 19 18 13 10 9 8 8 8 9 9 9 10 10 11 13 13 12 12
55 53 53 52 47 44 41 43 47 49 48 47 46 41 40 44 42 40 44 47 53 54 49 48 47 44 43 43 45 45 42 40 37 36 35 34 32 32 33 32 30 30 31 31 33 33 32 32 31 28 26 26 23 21 21 22 21 20 19 17 18 20 21 21 21 20 18 17 17 18 19 17 13 10 9 9 8 8 9 9 9 10 11 12 13 14 13 13
58 55 54 54 50 46 43 43 45 48 50 48 43 42 44 42 36 36 40 43 47 50 52 53 51 48 46 46 47 46 44 43 40 37 37 35 34 34 33 33 32 31 30 30 31 30 30 31 30 28 27 26 24 22 21 19 19 20 21 18 16 18 20 19 19 18 18 19 19 20 18 14 12 11 10 10 10 10 10 10 10 11 12 13 14 15 14 13
62 60 58 57 53 48 46 45 46 50 51 48 44 43 42 36 32 34 36 40 44 48 53 55 55 53 51 50 50 48 46 47 44 39 38 36 33 33 31 30 32 32 29 29 30 29 28 28 30 31 30 27 25 25 23 20 21 23 23 20 17 17 17 18 19 18 19 19 19 20 17 13 12 11 12 12 11 12 12 12 12 12 12 14 15 15 14 14
68 65 62 61 56 52 50 47 49 53 53 49 47 44 38 34 33 31 31 36 41 45 51 57 58 57 56 54 53 51 48 48 46 42 39 37 34 32 30 29 31 30 27 27 30 29 27 29 33 33 31 29 28 27 25 23 23 23 22 21 20 20 18 18 19 20 19 16 17 18 16 14 12 11 12 13 12 12 13 13 13 12 13 15 15 15 15 14
72 67 64 63 60 56 53 51 53 56 55 50 46 42 39 38 37 32 30 34 37 41 47 54 58 58 56 55 53 51 49 50 49 44 40 38 35 32 31 30 30 29 27 27 28 28 26 29 34 33 30 30 29 27 26 25 24 23 22 21 20 21 20 16 17 20 20 16 16 18 16 14 12 11 12 12 12 12 12 13 14 13 15 16 16 16 15 15
75 68 65 65 63 58 55 55 57 57 55 51 46 45 46 43 40 37 33 31 34 38 42 49 55 56 55 53 52 50 48 50 50 46 42 39 34 31 30 29 29 29 27 26 26 28 28 29 34 35 32 32 30 28 28 27 25 25 24 21 20 21 19 16 18 20 20 18 18 18 17 16 14 12 11 11 11 11 12 13 13 13 15 16 16 16 15 16
78 70 66 66 65 62 59 60 60 59 56 48 44 47 51 48 45 41 34 31 34 35 37 43 50 54 56 54 52 53 50 48 49 47 43 40 35 31 29 28 29 28 27 25 26 28 28 29 34 36 34 34 32 30 29 28 26 27 26 24 23 23 20 18 18 18 18 18 19 19 18 16 15 13 10 9 10 10 11 12 12 13 14 15 15 15 15 16
78 72 69 67 66 65 64 64 65 63 57 48 45 50 53 51 47 42 36 34 36 35 35 40 44 48 54 56 56 56 54 51 49 47 44 40 35 32 29 27 29 29 27 26 27 29 27 27 33 37 36 35 33 31 29 27 25 25 24 24 25 24 22 21 20 18 17 18 19 19 17 15 14 13 10 9 10 10 11 12 12 13 14 15 15 15 16 17
80 75 73 70 69 69 67 67 67 63 57 51 51 56 57 53 49 44 40 38 38 37 35 38 41 44 49 53 55 56 57 55 51 47 46 42 37 34 32 29 29 29 28 27 28 29 27 27 33 39 38 35 33 32 32 31 28 25 22 22 23 23 23 22 22 22 20 19 20 19 17 15 14 14 12 10 10 11 12 12 12 13 15 15 16 16 17 17
83 79 77 73 72 70 67 68 67 62 59 55 53 57 58 55 52 47 42 40 40 41 38 38 41 44 46 48 51 55 57 58 55 50 47 44 40 37 36 35 33 32 30 30 30 31 31 32 35 39 38 36 36 37 38 38 35 30 26 24 23 24 23 21 22 24 22 21 21 20 19 16 15 16 14 12 12 12 11 12 13 15 16 16 16 16 17 17
86 84 81 75 73 70 68 70 69 64 63 59 56 58 59 59 57 51 45 42 41 43 42 41 40 39 42 46 49 52 54 57 59 54 48 46 43 42 42 41 41 40 38 37 36 36 35 35 37 40 41 40 39 40 41 42 38 32 29 27 25 24 24 23 23 23 22 23 21 21 21 17 16 19 18 16 16 14 12 12 13 15 16 16 16 16 16 16
89 90 85 79 77 73 68 67 65 63 64 63 62 62 61 62 60 54 50 46 43 43 44 43 39 36 40 44 44 46 49 54 57 57 56 53 48 48 48 46 46 48 45 43 42 40 39 39 41 44 47 46 45 44 43 42 37 31 30 30 28 26 26 25 23 22 22 22 20 20 20 17 16 20 20 19 18 15 13 12 13 15 16 16 16 16 16 16
91 91 87 85 83 77 70 65 61 62 64 64 66 66 63 64 62 56 53 51 48 45 42 42 40 40 44 45 42 43 47 52 54 55 60 59 55 55 54 51 51 51 51 50 48 47 49 48 45 45 48 48 46 43 39 36 34 32 33 32 30 28 26 24 22 22 21 21 19 18 18 16 15 17 17 17 16 15 14 14 14 16 17 17 17 16 16 16
94 92 89 88 88 81 73 68 65 65 64 63 67 70 68 66 63 59 56 53 51 47 44 44 43 42 44 44 42 42 44 51 53 51 54 56 58 61 60 56 56 55 55 55 52 54 59 56 50 47 46 43 40 37 34 32 32 33 32 32 31 30 28 26 25 23 21 22 22 19 18 17 16 15 15 16 16 15 16 16 16 17 18 18 17 17 16 16
97 95 89 87 90 86 78 73 71 69 65 63 66 71 71 69 66 63 60 56 52 49 48 48 45 42 40 40 42 42 41 46 49 49 51 53 57 61 60 57 58 58 58 56 56 59 62 58 53 50 47 44 43 42 40 38 35 32 31 32 32 32 32 30 28 24 23 25 23 21 20 19 16 15 16 17 17 17 18 18 18 19 19 19 19 18 18 18
98 98 91 84 85 86 81 75 72 70 69 69 72 74 73 71 70 67 63 60 56 53 52 50 47 44 41 38 39 42 43 44 46 48 50 52 54 57 57 56 56 57 57 57 57 61 62 60 58 54 50 49 49 47 45 42 39 36 34 34 32 32 33 32 29 25 26 26 22 20 22 20 17 17 18 19 20 20 20 21 21 22 22 22 22 22 22 22
99 100 96 88 85 86 82 76 73 74 76 77 80 79 74 72 72 69 66 63 60 57 54 52 49 47 44 41 40 42 42 42 43 46 47 48 51 53 53 53 53 53 55 55 57 60 60 61 63 60 53 53 53 52 50 48 45 40 37 36 34 34 32 30 27 25 25 25 22 24 25 21 18 18 19 21 22 22 23 24 25 25 26 26 26 26 25 27
98 99 99 95 92 90 87 84 80 80 81 81 82 80 74 72 73 73 70 65 62 60 57 54 53 50 47 47 46 44 43 40 40 43 44 45 47 47 47 47 48 51 51 50 52 54 53 57 63 61 56 56 57 55 53 52 47 42 40 39 37 35 34 31 28 27 28 27 26 28 28 23 20 20 21 23 24 24 26 27 27 27 27 28 28 27 28 30
97 99 99 98 98 96 94 91 87 86 86 83 81 80 77 73 72 73 72 67 64 63 60 58 57 55 51 51 49 47 47 46 44 42 42 43 42 42 43 43 44 48 48 46 48 49 47 50 55 55 54 57 59 58 57 54 48 45 45 43 38 36 34 31 29 29 29 28 29 30 29 23 21 21 23 24 25 26 26 28 28 28 28 29 29 30 31 32
96 98 98 98 98 99 98 96 94 92 88 81 79 80 77 74 72 72 72 71 67 64 63 61 60 58 57 55 52 49 48 48 48 46 44 44 43 44 45 44 43 45 47 48 48 47 45 45 45 46 46 50 57 58 56 54 54 51 46 41 40 37 33 31 31 30 29 27 29 30 26 21 21 22 23 25 27 27 26 27 29 28 29 30 31 33 34 34